Location: *
(47.3167°N, 8.7500°E)
Time: 14:33:13
(UTC+00:00)

Daily predictions for brighter satellites

Satellite Brightness Start Highest point End
(mag) Time Altitude Azimuth Time Altitude Azimuth Time Altitude Azimuth
Cosmos 1697 Rocket 3.9 19:47:16 10° SW 19:52:42 49° WNW 19:58:12 10° NNE
ADEOS Rocket 2.9 19:48:25 10° NNE 19:54:05 61° E 19:59:29 10° S
Cosmos 2360 Rocket 3.8 19:50:59 10° SE 19:54:15 16° E 19:57:30 10° ENE
Cosmos 332 Rocket 3.8 19:51:23 10° NNW 19:56:14 90° E 20:01:01 10° SSE
Cosmos 1242 Rocket 3.3 19:54:14 10° SSE 19:57:32 34° E 20:00:54 10° NNE
Cosmos 1980 Rocket 2.5 19:52:44 10° SSW 19:58:22 74° WNW 20:04:00 10° NNE
Cosmos 1340 Rocket 2.9 19:54:53 10° N 19:58:58 70° ENE 20:03:03 10° SSE
USA 215 3.6 19:53:01 10° NE 19:59:35 76° NNW 20:06:07 10° WSW
Cosmos 1869 3.3 19:56:01 10° N 20:00:00 77° E 20:03:56 10° SSE
Resurs 01 Rocket 2.2 19:57:48 10° S 20:02:11 59° W 20:06:35 10° NNW
MetOp-A 4.4 19:58:45 10° S 20:04:05 72° WSW 20:09:28 10° NNW
Terra 3.5 20:01:54 10° ESE 20:05:25 21° ENE 20:08:57 10° NNE
Spot 2 Rocket 3.6 20:01:32 10° SSE 20:06:38 89° ENE 20:11:47 10° NNW
BREEZE-M DEB (TANK) 4.4 20:05:57 10° SSE 20:08:15 14° SE 20:10:42 10° E
Gbstr 26 Del rocket 2.9 20:06:50 10° SW 20:10:46 48° SSE 20:14:24 10° ENE
Cosmos 304 Rocket 3.9 20:08:09 10° NNW 20:12:59 67° ENE 20:17:41 10° SSE
Cosmos 44 Rocket 4.2 20:11:27 10° S 20:15:54 31° ESE 20:20:19 10° NE
Cosmos 1072 Rocket 4.5 20:11:19 10° S 20:17:23 66° E 20:23:27 10° NNE
MTI 4.0 20:16:00 10° N 20:19:10 71° WNW 20:22:18 10° SSW
Cosmos 921 Rocket 3.3 20:16:21 10° N 20:20:30 51° ENE 20:24:13 13° SE
Cosmos 44 3.5 20:15:27 10° SW 20:20:44 85° NW 20:25:48 10° NE
CZ-2C R/B 2.8 20:16:23 10° NNE 20:21:28 49° E 20:26:28 10° S
Cosmos 2322 Rocket 2.4 20:17:10 10° S 20:22:40 53° ESE 20:28:13 10° NE
SL-16 R/B 2.2 20:21:31 10° SSW 20:27:07 64° ESE 20:32:44 10° NNE
Cosmos 2058 3.7 20:25:56 10° SSW 20:30:02 54° WNW 20:34:12 10° N
Cosmos 1408 3.8 20:27:39 14° SE 20:30:03 26° E 20:33:12 10° NNE
Cosmos 1151 Rocket 3.1 20:26:48 10° N 20:31:11 67° E 20:35:05 13° SSE
USA 267 3.7 20:28:47 12° SSE 20:34:49 54° SW 20:41:14 10° WNW
Cosmos 1328 Rocket 3.5 20:31:07 10° N 20:35:33 86° E 20:39:35 12° S
H-2A R/B 4.0 20:32:30 10° SSW 20:37:04 27° W 20:41:38 10° NW
Nadezhda 4 Rocket 4.1 20:31:27 10° N 20:37:44 64° ENE 20:43:15 13° SSE
Cosmos 1356 Rocket 4.4 20:34:13 10° N 20:38:09 34° ENE 20:41:02 16° SE
Cosmos 1825 3.4 20:36:50 16° SE 20:38:50 25° E 20:41:59 10° NNE
Cosmos 2034 Rocket 4.1 20:33:36 10° S 20:39:45 66° E 20:45:59 10° NNE
Tiangong 2 2.0 20:38:26 10° WSW 20:41:14 30° S 20:42:39 21° SE
Lacrosse 5 rocket 3.9 20:37:42 10° WNW 20:41:32 25° N 20:45:19 10° NE
EO 1 Del DPAF 3.1 20:38:00 10° NNE 20:41:49 80° ESE 20:45:37 10° S
SPOT 5 3.1 20:37:50 14° SSE 20:42:07 61° ENE 20:46:57 10° N
Cosmos 1500 Rocket 4.1 20:43:04 15° SSE 20:46:23 43° E 20:50:38 10° NNE
Cosmos 1461 4.2 20:43:24 10° NW 20:46:53 30° WSW 20:50:05 12° S
Cosmos 1844 Rocket 3.5 20:42:09 10° NNW 20:47:34 42° NE 20:51:56 15° ESE
Cosmos 2263 Rocket 2.9 20:45:50 10° NW 20:51:18 49° WSW 20:56:25 12° S
In-Cosmos 22 Rocket 4.4 20:46:35 10° SSW 20:51:58 74° WNW 20:57:33 10° N
ATLAS CENTAUR R/B 4.2 20:49:25 10° NNW 20:52:02 14° NNE 20:54:35 10° NE
Cosmos 1092 Rocket 4.2 20:47:35 10° N 20:53:46 56° ENE 20:58:22 18° SSE
USA 81 4.5 20:50:56 10° N 20:56:03 48° E 20:59:32 19° SE
ASTEX 1 4.5 20:53:12 10° NNE 20:57:33 29° E 21:00:05 19° SE
Thor Agena Rocket 3.4 20:52:56 10° NNE 20:58:01 73° ESE 21:03:02 10° S
TIMED 4.4 20:56:03 10° SSW 21:00:23 70° ESE 21:04:45 10° NNE
SL-4 R/B 3.6 21:00:20 21° SE 21:01:00 21° SE 21:04:37 10° E
Cosmos 1892 3.4 21:01:14 10° SSW 21:05:01 54° WNW 21:08:48 10° N
Cosmos 407 Rocket 3.9 21:03:34 17° S 21:07:21 46° ESE 21:12:27 10° NNE
SL-23 DEB 3.8 21:03:41 10° WNW 21:08:13 62° SSW 21:09:50 28° SE
ISS -3.4 21:05:48 10° SW 21:08:58 41° SE 21:12:08 10° ENE
Landsat 4 3.8 21:06:31 10° NNE 21:10:10 53° E 21:12:03 25° SSE
Cosmos 1190 Rocket 4.4 21:08:02 19° SSE 21:11:22 44° ESE 21:16:19 10° NNE
Cosmos 1140 Rocket 4.3 21:09:01 22° SE 21:11:22 32° E 21:15:56 10° NE
Lacrosse 5 4.0 21:07:32 10° WNW 21:11:52 27° N 21:16:11 10° ENE
Cosmos 1743 Rocket 3.5 21:09:10 15° S 21:12:48 89° W 21:17:11 10° N
Landsat 7 4.3 21:09:56 15° S 21:13:45 55° W 21:18:27 10° NNW
Cosmos 1607 4.5 21:09:01 10° NNW 21:15:01 51° NE 21:19:40 17° ESE
COSMOS 2428 3.8 21:14:20 21° SE 21:16:17 25° ESE 21:20:52 10° NE
Cosmos 1634 Rocket 4.2 21:12:12 19° SSE 21:16:33 55° E 21:22:37 10° NNE
USA 229 DEB 3.9 21:11:19 10° S 21:17:32 47° ESE 21:24:03 10° NE
USA 229 3.9 21:11:26 10° S 21:17:39 47° ESE 21:24:09 10° NE
Cosmos 1515 Rocket 4.2 21:16:35 10° NNW 21:20:49 50° W 21:23:58 17° SSW
Cosmos 1844 4.0 21:15:25 10° NNW 21:20:58 58° ENE 21:24:28 23° SE
NOSS 3-1 (A) 4.3 21:19:42 22° SE 21:21:11 25° ESE 21:26:03 10° ENE
ERS-1 Rocket 3.7 21:17:31 14° S 21:21:35 47° W 21:26:28 10° NNW
MOS 1 Rocket 3.3 21:18:22 10° NNE 21:22:45 57° E 21:25:15 25° S
SL-8 R/B 3.6 21:19:39 10° WNW 21:24:27 89° SSW 21:28:04 18° ESE
SPOT 1/Viking Rocket 4.4 21:22:40 14° SSW 21:26:49 45° W 21:31:48 10° NNW
Cosmos 614 Rocket 3.9 21:25:44 21° S 21:29:01 61° ESE 21:34:03 10° NNE
Cosmos 2026 Rocket 4.0 21:23:35 10° N 21:29:40 71° E 21:33:22 25° SSE
Cosmos 1933 3.6 21:26:39 10° NNW 21:30:42 63° W 21:32:51 26° S
Cosmos 2228 Rocket 3.8 21:31:39 10° NNW 21:36:03 50° W 21:38:55 20° SSW
Cosmos 2360 Rocket 2.2 21:31:48 10° SSW 21:37:28 86° WNW 21:43:09 10° NNE
Helios 1A 3.7 21:36:01 27° ESE 21:37:42 40° ENE 21:41:37 10° N
Cosmos 1805 Rocket 3.6 21:36:23 31° SSE 21:38:17 63° E 21:42:37 10° NNE
Cosmos 2237 Rocket 3.9 21:37:40 14° ESE 21:38:19 14° E 21:41:13 10° ENE
Terra 2.3 21:40:02 23° S 21:42:47 55° W 21:47:29 10° NNW
Cosmos 292 Rocket 3.7 21:38:13 10° NNW 21:43:06 86° WSW 21:45:20 32° SSE
Cosmos 1818 3.9 21:38:03 10° NNW 21:43:31 62° NE 21:46:40 25° ESE
SeaSat 1 3.7 21:41:17 10° NE 21:45:08 22° ESE 21:45:33 22° ESE
Cosmos 1606 2.9 21:43:05 10° NNW 21:46:50 62° W 21:48:14 34° SSW
Cosmos 1263 4.0 21:45:04 10° N 21:48:03 83° W 21:48:31 60° S
Spot 4 4.2 21:46:28 30° SE 21:48:35 54° ENE 21:53:16 10° N
DELTA 2 R/B (1) 4.2 21:47:47 10° SW 21:52:41 32° SSE 21:52:51 32° SSE
ALOS 2 4.1 21:51:26 20° ESE 21:53:15 26° ENE 21:56:53 10° N
Meteor 2-3 Rocket 3.9 21:51:23 20° SSW 21:55:32 77° WNW 22:01:24 10° N
Cosmos 44 Rocket 4.4 21:52:19 10° WSW 21:57:17 48° NW 22:02:10 10° NNE
Gbstr 26 Del rocket 3.5 21:53:50 10° W 21:57:34 50° NNW 22:01:14 10° ENE
Cosmos 1666 Rocket 3.8 21:57:00 39° SSE 21:58:24 57° E 22:02:48 10° NNE
GP-B 4.3 21:56:52 10° NNE 22:00:44 28° E 22:01:47 25° ESE
Cosmos 1633 Rocket 3.3 22:01:28 40° SE 22:02:34 51° E 22:06:47 10° NNE
Cosmos 2333 4.1 22:01:07 23° SSW 22:04:46 79° ESE 22:10:28 10° NNE
Cosmos 2322 Rocket 4.0 22:01:59 10° WSW 22:07:00 31° NW 22:12:04 10° NNE
Cosmos 2333 Rocket 2.3 22:04:56 32° S 22:07:24 57° ESE 22:13:00 10° NE
Cosmos 1867 4.5 22:07:09 28° ESE 22:07:42 29° ESE 22:12:21 10° NE
Mayak -1.2 22:04:47 10° NNE 22:09:01 67° E 22:10:10 45° SSE
Cosmos 2219 Rocket 2.3 22:06:34 32° S 22:09:05 60° ESE 22:14:40 10° NNE
SL-16 R/B 4.3 22:06:57 10° WSW 22:11:41 26° NW 22:16:26 10° N
Cosmos 2278 Rocket 2.8 22:07:01 10° NNW 22:12:34 51° ENE 22:15:33 26° ESE
Cosmos 1862 Rocket 4.0 22:08:43 10° N 22:12:56 48° ENE 22:14:05 38° ESE
Cosmos 1825 4.1 22:11:37 12° SW 22:14:19 25° WNW 22:17:28 10° NNW
Cosmos 1470 Rocket 4.1 22:17:17 37° ESE 22:18:01 40° E 22:22:08 10° NNE
Cosmos 2266 Rocket 4.3 22:13:07 10° N 22:19:27 59° ENE 22:22:22 32° SE
Cosmos 1633 3.1 22:20:25 40° E 22:20:25 40° E 22:23:47 10° NNE
Cosmos 2322 4.0 22:16:22 13° SW 22:21:19 65° WNW 22:26:58 10° NNE
Cosmos 676 Rocket 4.0 22:18:40 26° SSW 22:21:39 79° WNW 22:26:56 10° NNE
Lacrosse 5 rocket 3.4 22:17:45 10° NW 22:21:52 31° NNE 22:25:52 10° E
Sich 1 3.4 22:23:01 34° SW 22:24:41 60° WNW 22:28:57 10° N
Cosmos 1741 Rocket 4.3 22:28:04 40° SE 22:29:20 48° ESE 22:34:21 10° NNE
Helios 1B rocket 2.7 22:25:20 10° NNE 22:29:23 50° E 22:29:53 47° SE
Cosmos 1844 Rocket 3.7 22:26:16 10° NW 22:31:23 36° WSW 22:33:35 26° SSW
NOSS 3-1 (C) 3.4 22:26:24 13° SW 22:31:30 80° NW 22:38:05 10° NE
Cosmos 2279 Rocket 4.1 22:27:58 27° SSW 22:31:30 70° W 22:37:43 10° N
ATLAS CENTAUR R/B 2.6 22:27:42 10° NNW 22:32:18 43° NE 22:34:37 24° ESE
Cosmos 1782 3.8 22:32:36 10° NNW 22:36:20 36° W 22:37:20 31° SW
Cosmos 1954 Rocket 4.3 22:34:38 24° SW 22:37:43 63° WNW 22:42:59 10° NNE
Meteor 1-10 Rocket 4.3 22:32:46 10° NNW 22:38:23 73° W 22:40:37 38° S
Cosmos 2084 Rocket 3.8 22:35:57 10° NW 22:40:10 48° SW 22:40:35 46° SW
SL-4 R/B 2.2 22:35:34 11° WSW 22:40:17 77° SSE 22:44:59 10° ENE
Cosmos 1850 Rocket 4.1 22:39:47 43° S 22:41:23 64° ESE 22:46:42 10° NNE
JB-3 4.4 22:38:06 10° NNE 22:42:18 87° WNW 22:43:10 55° SSW
Cosmos 1862 3.2 22:43:09 61° SSW 22:43:49 85° W 22:47:51 10° N
ISS -2.9 22:42:22 10° W 22:45:38 51° NNW 22:48:54 10° ENE
COSMOS 2455 3.9 22:44:47 26° ESE 22:45:40 27° ESE 22:50:39 10° NE
Cosmos 1400 Rocket 3.1 22:41:50 10° N 22:45:56 58° ENE 22:46:38 50° ESE
BREEZE-M DEB (TANK) 2.6 22:45:44 10° WNW 22:47:52 57° N 22:51:35 10° E
Lacrosse 5 3.1 22:51:08 10° NW 22:55:55 40° NNE 23:00:41 10° E
Cosmos 1812 2.5 22:54:49 10° N 22:58:43 81° E 22:59:00 73° SE
COSMOS 2428 3.2 22:56:17 21° SW 23:00:08 58° WNW 23:05:49 10° NNE
Cosmos 724 4.4 22:54:13 10° NW 23:00:18 77° NE 23:03:08 33° SE
SL-16 R/B 3.3 23:02:03 26° ESE 23:03:01 27° ESE 23:07:41 10° NE
SL-8 R/B 4.5 23:02:21 10° W 23:06:00 34° SW 23:06:00 34° SW
Cosmos 540 Rocket 4.3 23:01:52 10° NNW 23:06:46 44° ENE 23:09:06 27° ESE
ERS-2 2.0 23:09:02 73° ESE 23:09:14 75° ENE 23:12:55 10° N
Cosmos 1437 4.3 23:10:29 26° ENE 23:10:29 26° ENE 23:12:28 10° NNE
NOSS 3-1 (A) 3.6 23:07:04 18° SW 23:11:21 68° NW 23:17:57 10° NE
Cosmos 1980 3.6 23:11:32 41° SSW 23:13:36 84° ESE 23:19:20 10° NNE
Cosmos 2242 Rocket 4.0 23:10:15 10° NNW 23:14:41 55° W 23:15:33 46° SW
Spot 1 4.5 23:13:32 48° S 23:14:57 73° WSW 23:20:01 10° NNW
Cosmos 841 Rocket 3.6 23:10:59 10° NNW 23:16:08 67° ENE 23:17:55 40° SE
Meteor 1-29 3.2 23:14:46 10° N 23:18:11 60° WNW 23:18:15 60° W
Cosmos 2237 Rocket 2.1 23:19:28 41° SSW 23:21:31 89° ESE 23:27:11 10° NNE
NOSS 2-3 (E) 3.8 23:21:21 41° SW 23:22:57 80° NW 23:28:20 10° NE
SeaSat 1 2.8 23:18:05 10° NNE 23:22:58 60° WNW 23:25:19 30° SW
NOSS 0 Rocket 4.0 23:20:00 31° SW 23:23:06 78° WNW 23:29:18 10° NNE
Cosmos 468 Rocket 4.4 23:19:22 10° NNW 23:24:28 50° WSW 23:25:40 42° SW
Cosmos 1763 Rocket 3.5 23:20:14 10° NNW 23:25:22 65° WSW 23:26:37 48° SSW
NOSS 2-3 (D) 3.8 23:24:06 43° SW 23:25:38 81° NW 23:30:59 10° NE
Cosmos 1703 Rocket 3.5 23:22:10 10° NNW 23:26:37 79° W 23:27:21 60° SSW
ALOS 2 3.4 23:28:50 34° WSW 23:29:26 36° W 23:33:31 10° NNW
Meteor 1-27 Rocket 4.4 23:24:12 10° NNW 23:29:47 47° W 23:31:49 34° SW
Cosmos 2221 Rocket 4.3 23:25:22 10° N 23:29:47 48° ENE 23:30:57 38° ESE
BREEZE M DEB (TANK) 4.0 23:30:11 29° SE 23:30:13 29° SE 23:37:43 10° ENE
Cosmos 2208 Rocket 4.1 23:24:55 10° NNW 23:30:20 65° WSW 23:31:46 47° SSW
Meteor 1-25 Rocket 4.3 23:34:26 43° SSE 23:36:09 63° E 23:41:40 10° NNE
GP-B 4.4 23:34:07 10° NNW 23:38:02 31° W 23:39:14 26° WSW
SL-24 R/B - RUBIN 2 4.2 23:34:16 10° NW 23:40:02 77° SW 23:42:31 38° SSE
Mayak 1.3 23:41:43 10° NNW 23:44:06 15° WNW 23:46:28 10° W
Gbstr 26 Del rocket 3.7 23:41:10 10° WNW 23:44:47 46° N 23:48:37 10° E
Okean 1 3.6 23:40:50 10° N 23:44:50 58° ENE 23:45:27 51° ESE
Cosmos 2285 Rocket 3.9 23:43:15 40° SSW 23:45:43 82° ESE 23:52:03 10° NNE
CSL-04 DEB 4.5 23:45:48 60° S 23:46:30 78° WSW 23:50:55 10° NNW
Cosmos 2297 3.6 23:42:17 10° NNW 23:47:58 88° ENE 23:50:12 39° SSE
CZ-4 R/B 4.1 23:43:40 10° N 23:48:15 57° WNW 23:49:40 40° SW
Meteor 1-20 Rocket 4.2 23:47:09 43° S 23:49:07 80° E 23:54:58 10° NNE
Cosmos 1867 4.1 23:47:46 24° WSW 23:51:00 56° NW 23:56:25 10° NNE
Okean 1-7 3.3 23:47:44 10° NNW 23:51:55 52° W 23:52:25 48° WSW
Cosmos 2333 Rocket 3.8 23:47:07 10° WSW 23:52:02 29° NW 23:56:58 10° NNE
ATLAS 3B R/B 4.4 23:46:36 10° NNW 23:52:23 30° NNE 23:58:12 10° E
H-2A R/B 4.2 23:49:49 12° ESE 23:52:56 23° ENE 23:56:28 10° NNE
Cosmos 2219 Rocket 3.9 23:48:37 10° WSW 23:53:26 28° NW 23:58:16 10° N
